FW9021 Weather Reports


Display with metric or nautical units.
time (UTC)temp
F
wind
direction
speed
MPH
gust
MPH
rain 1hr
in
rain 24hr
in
rain mn
in
humidity
%
barometer
mb
20260505050538 57 98 1.0 3.0 0.00 0.00 0.00 78 1014.3
20260505041546 57 65 0.0 2.0 0.00 0.00 0.00 78 1014.1
20260505041044 58 65 0.0 2.0 0.00 0.00 0.00 79 1014.2
20260505040541 58 90 0.0 2.0 0.00 0.00 0.00 79 1014.1
20260505040054 58 52 0.0 2.0 0.00 0.00 0.00 78 1014.1
20260505035540 58 0 0.0 2.0 0.00 0.00 0.00 78 1014.0
20260505035040 58 0 0.0 2.0 0.00 0.00 0.00 78 1014.1
20260505034612 58 109 0.0 2.0 0.00 0.00 0.00 77 1014.2
20260505034040 58 0 0.0 3.0 0.00 0.00 0.00 77 1014.2
20260505033540 58 109 1.0 3.0 0.00 0.00 0.00 76 1014.2
20260505033053 58 103 0.0 3.0 0.00 0.00 0.00 75 1014.2
20260505032540 58 103 1.0 3.0 0.00 0.00 0.00 75 1014.2
20260505032039 58 0 1.0 3.0 0.00 0.00 0.00 75 1014.2
20260505031546 58 80 1.0 2.0 0.00 0.00 0.00 75 1014.3
20260505031041 59 98 0.0 4.0 0.00 0.00 0.00 74 1014.3
20260505030541 59 77 1.0 4.0 0.00 0.00 0.00 75 1014.3
20260505030051 59 38 0.0 2.0 0.00 0.00 0.00 75 1014.2
20260505025542 59 0 0.0 2.0 0.00 0.00 0.00 74 1014.2
20260505025037 60 0 0.0 4.0 0.00 0.00 0.00 74 1014.3
20260505024544 60 49 2.0 4.0 0.00 0.00 0.00 74 1014.3
20260505024041 60 85 0.0 2.0 0.00 0.00 0.00 74 1014.4
20260505023541 60 88 1.0 3.0 0.00 0.00 0.00 74 1014.2
20260505023048 60 0 0.0 3.0 0.00 0.00 0.00 74 1014.2
20260505022543 61 0 0.0 3.0 0.00 0.00 0.00 74 1014.1
20260505022040 61 0 0.0 3.0 0.00 0.00 0.00 76 1014.2
20260505021554 61 0 0.0 3.0 0.00 0.00 0.00 75 1014.1
20260505021041 61 100 1.0 3.0 0.00 0.00 0.00 74 1014.1
20260505020540 61 100 0.0 2.0 0.00 0.00 0.00 74 1014.1
20260505020049 61 111 1.0 2.0 0.00 0.00 0.00 74 1014.0
20260505015541 62 80 1.0 2.0 0.00 0.00 0.00 74 1014.0
20260505015040 62 93 0.0 1.0 0.00 0.00 0.00 75 1014.0
20260505014546 62 0 0.0 1.0 0.00 0.00 0.00 73 1013.9
20260505014040 62 0 0.0 2.0 0.00 0.00 0.00 73 1013.9
20260505013540 62 93 0.0 2.0 0.00 0.00 0.00 73 1013.8
20260505013054 62 93 1.0 2.0 0.00 0.00 0.00 71 1013.7
20260505012540 63 93 1.0 2.0 0.00 0.00 0.00 71 1013.6
20260505012040 63 93 1.0 2.0 0.00 0.00 0.00 70 1013.6
20260505011607 63 0 0.0 1.0 0.00 0.00 0.00 69 1013.7
20260505011041 64 0 0.0 1.0 0.00 0.00 0.00 68 1013.6
20260505010540 64 53 0.0 1.0 0.00 0.00 0.00 68 1013.6
20260505010053 65 0 0.0 1.0 0.00 0.00 0.00 67 1013.5
20260505005540 65 0 0.0 1.0 0.00 0.00 0.00 67 1013.5
20260505005040 65 51 0.0 3.0 0.00 0.00 0.00 66 1013.6
20260505004547 66 0 0.0 3.0 0.00 0.00 0.00 65 1013.5
20260505004040 67 36 2.0 3.0 0.00 0.00 0.00 63 1013.4
20260505003539 68 42 0.0 2.0 0.00 0.00 0.00 59 1013.4
20260505003055 68 67 0.0 2.0 0.00 0.00 0.00 59 1013.4
20260505002540 69 0 0.0 2.0 0.00 0.00 0.00 60 1013.3
20260505002040 69 259 0.0 2.0 0.00 0.00 0.00 57 1013.3
20260505001558 69 259 0.0 5.0 0.00 0.00 0.00 57 1013.2
20260505001040 69 0 1.0 5.0 0.00 0.00 0.00 56 1013.2
20260505000540 70 228 1.0 6.0 0.00 0.00 0.00 56 1013.3
20260505000104 70 147 0.0 9.0 0.00 0.00 0.00 55 1013.2
20260504235540 70 217 4.0 9.0 0.00 0.00 0.00 55 1013.3
20260504235040 70 238 6.0 14.0 0.00 0.00 0.00 56 1013.2
20260504234544 70 238 6.0 14.0 0.00 0.00 0.00 55 1013.2
20260504234040 71 257 8.0 14.0 0.00 0.00 0.00 54 1013.2
20260504233540 71 248 11.0 14.0 0.00 0.00 0.00 55 1013.2
20260504233103 71 232 8.0 12.0 0.00 0.00 0.00 52 1013.3
20260504232540 71 216 8.0 12.0 0.00 0.00 0.00 55 1013.3
20260504232040 71 250 9.0 12.0 0.00 0.00 0.00 53 1013.3
20260504231555 71 261 8.0 11.0 0.00 0.00 0.00 50 1013.1
20260504231040 71 261 5.0 10.0 0.00 0.00 0.00 52 1013.2
20260504230541 71 260 7.0 10.0 0.00 0.00 0.00 53 1013.0
20260504230049 71 259 6.0 10.0 0.00 0.00 0.00 48 1013.1
20260504225541 71 230 5.0 11.0 0.00 0.00 0.00 50 1013.0
20260504225040 71 255 7.0 12.0 0.00 0.00 0.00 50 1013.0
20260504224544 71 254 8.0 12.0 0.00 0.00 0.00 50 1013.0
20260504224040 71 244 7.0 14.0 0.00 0.00 0.00 49 1013.1
20260504223540 71 257 10.0 15.0 0.00 0.00 0.00 48 1013.2
20260504223043 71 262 8.0 16.0 0.00 0.00 0.00 50 1013.2
20260504222544 71 246 11.0 16.0 0.00 0.00 0.00 52 1013.3
20260504222042 71 236 11.0 17.0 0.00 0.00 0.00 48 1013.4
20260504221546 71 258 12.0 17.0 0.00 0.00 0.00 51 1013.4
20260504221039 71 250 10.0 17.0 0.00 0.00 0.00 48 1013.3
20260504220538 72 259 10.0 17.0 0.00 0.00 0.00 51 1013.2
20260504220051 71 232 10.0 17.0 0.00 0.00 0.00 50 1013.3
20260504215538 72 257 10.0 15.0 0.00 0.00 0.00 53 1013.2
20260504215038 72 250 10.0 15.0 0.00 0.00 0.00 51 1013.2
20260504214549 72 254 9.0 15.0 0.00 0.00 0.00 46 1013.2
20260504214038 72 210 6.0 15.0 0.00 0.00 0.00 48 1013.1
20260504213538 72 234 8.0 17.0 0.00 0.00 0.00 47 1013.1
20260504213049 72 240 8.0 17.0 0.00 0.00 0.00 48 1013.0
20260504212539 72 266 9.0 17.0 0.00 0.00 0.00 49 1013.0
20260504212038 71 253 9.0 18.0 0.00 0.00 0.00 48 1013.0
20260504211546 71 254 11.0 18.0 0.00 0.00 0.00 49 1012.9
20260504211038 71 262 13.0 17.0 0.00 0.00 0.00 47 1012.9
20260504210538 71 254 12.0 17.0 0.00 0.00 0.00 47 1013.0
20260504210052 71 246 11.0 17.0 0.00 0.00 0.00 46 1013.0
20260504205541 71 263 10.0 17.0 0.00 0.00 0.00 49 1013.0
20260504205037 71 241 10.0 17.0 0.00 0.00 0.00 44 1013.1
20260504204551 71 263 12.0 17.0 0.00 0.00 0.00 45 1013.2
20260504204038 71 270 11.0 16.0 0.00 0.00 0.00 43 1013.2
20260504203539 71 261 11.0 16.0 0.00 0.00 0.00 39 1013.1
20260504203056 71 250 12.0 16.0 0.00 0.00 0.00 43 1013.1
20260504202539 71 248 9.0 16.0 0.00 0.00 0.00 46 1013.2
20260504202043 71 271 12.0 19.0 0.00 0.00 0.00 44 1013.2
20260504201549 71 259 13.0 19.0 0.00 0.00 0.00 41 1013.2
20260504201038 71 250 12.0 16.0 0.00 0.00 0.00 42 1013.3
20260504200538 71 252 11.0 15.0 0.00 0.00 0.00 46 1013.4
20260504200046 71 255 11.0 15.0 0.00 0.00 0.00 44 1013.6
20260504195538 71 271 9.0 15.0 0.00 0.00 0.00 43 1013.5
20260504195038 71 262 10.0 15.0 0.00 0.00 0.00 43 1013.5
20260504194601 71 261 7.0 14.0 0.00 0.00 0.00 39 1013.7
20260504194038 71 264 9.0 14.0 0.00 0.00 0.00 41 1013.7
20260504193538 71 242 7.0 10.0 0.00 0.00 0.00 46 1013.7
20260504193049 72 240 4.0 9.0 0.00 0.00 0.00 46 1013.8
20260504192538 72 251 2.0 6.0 0.00 0.00 0.00 46 1013.8
20260504192038 72 58 0.0 5.0 0.00 0.00 0.00 45 1013.9
20260504191605 73 28 3.0 5.0 0.00 0.00 0.00 45 1013.9
20260504191039 73 66 2.0 5.0 0.00 0.00 0.00 44 1014.0
20260504190539 73 198 2.0 5.0 0.00 0.00 0.00 44 1014.1
20260504190048 73 184 0.0 4.0 0.00 0.00 0.00 44 1014.1
20260504185541 73 0 1.0 6.0 0.00 0.00 0.00 45 1014.1
20260504185041 73 43 2.0 6.0 0.00 0.00 0.00 44 1014.2
20260504184549 73 83 0.0 3.0 0.00 0.00 0.00 47 1014.3
20260504184038 72 0 0.0 4.0 0.00 0.00 0.00 45 1014.3
20260504183540 72 19 1.0 7.0 0.00 0.00 0.00 45 1014.2
20260504183045 72 278 2.0 8.0 0.00 0.00 0.00 47 1014.4
20260504182541 72 105 3.0 8.0 0.00 0.00 0.00 47 1014.5
20260504182040 71 128 3.0 8.0 0.00 0.00 0.00 49 1014.4
20260504181556 71 35 1.0 8.0 0.00 0.00 0.00 48 1014.6
20260504181040 71 288 3.0 8.0 0.00 0.00 0.00 48 1014.7
20260504180540 71 0 0.0 5.0 0.00 0.00 0.00 48 1014.8
20260504180047 71 198 1.0 4.0 0.00 0.00 0.00 48 1014.7
20260504175541 70 352 0.0 4.0 0.00 0.00 0.00 50 1014.9
20260504175040 69 0 1.0 7.0 0.00 0.00 0.00 50 1015.0
20260504174551 69 216 2.0 7.0 0.00 0.00 0.00 50 1015.1
20260504174041 69 223 1.0 7.0 0.00 0.00 0.00 51 1015.1
20260504173540 69 247 2.0 8.0 0.00 0.00 0.00 52 1015.1
20260504173049 69 254 3.0 8.0 0.00 0.00 0.00 53 1015.3
20260504172543 69 249 2.0 5.0 0.00 0.00 0.00 54 1015.4
20260504172041 68 355 2.0 8.0 0.00 0.00 0.00 54 1015.4
20260504171551 68 107 2.0 9.0 0.00 0.00 0.00 54 1015.4
20260504171041 67 249 2.0 9.0 0.00 0.00 0.00 54 1015.5
20260504170541 67 242 5.0 8.0 0.00 0.00 0.00 55 1015.5
20260504160110 64 215 3.0 7.0 0.00 0.00 0.00 56 1016.3
20260504151040 61 261 1.0 3.0 0.00 0.00 0.00 61 1016.9
20260504150540 62 250 1.0 3.0 0.00 0.00 0.00 63 1017.0
20260504141040 57 214 0.0 1.0 0.00 0.00 0.00 72 1017.1
20260504140540 56 0 0.0 3.0 0.00 0.00 0.00 74 1017.1
20260504130540 50 0 0.0 3.0 0.00 0.00 0.00 82 1017.1
20260504110540 42 74 0.0 2.0 0.00 0.00 0.00 89 1016.9
20260504100542 43 111 0.0 2.0 0.00 0.00 0.00 89 1016.8
20260504090105 43 58 0.0 3.0 0.00 0.00 0.00 88 1017.0
20260504081554 43 82 1.0 3.0 0.00 0.00 0.00 88 1016.7
20260504081038 43 86 1.0 3.0 0.00 0.00 0.00 88 1016.5
20260504080538 43 86 1.0 2.0 0.00 0.00 0.00 88 1016.6